This is the latest recevied weather packets stored in our database for station/object KC0CAU. If no packets are shown the sender has not sent any weather packets the latest 10 day(s).
| Time | Temp. | Humidity | Pressure | Rain* | Wind** | Luminosity | Snow |
|---|---|---|---|---|---|---|---|
| 1777937439 | 7.78° C | 46% | 1010.2 hPa | 0 mm | - | - | - |
| 1777936543 | 8.33° C | 46% | 1010 hPa | 0 mm | - | - | - |
| 1777935642 | 8.33° C | 46% | 1009.8 hPa | 0 mm | - | - | - |
| 1777934734 | 8.89° C | 43% | 1009.5 hPa | 0 mm | - | - | - |
| 1777933831 | 9.44° C | 45% | 1009.4 hPa | 0 mm | - | - | - |
| 1777932942 | 9.44° C | 46% | 1009.1 hPa | 0 mm | - | - | - |
| 1777932089 | 8.89° C | 48% | 1009.2 hPa | 0 mm | - | - | - |
| 1777931127 | 8.89° C | 49% | 1009.2 hPa | 0 mm | - | - | - |
| 1777930232 | 8.89° C | 49% | 1009.1 hPa | 0 mm | - | - | - |
| 1777929328 | 9.44° C | 48% | 1008.9 hPa | 0 mm | - | - | - |
| 1777928423 | 8.89° C | 49% | 1008.9 hPa | 0 mm | - | - | - |
| 1777927525 | 8.89° C | 49% | 1009.1 hPa | 0 mm | - | - | - |
| 1777926622 | 9.44° C | 53% | 1009 hPa | 0 mm | - | - | - |
| 1777925724 | 8.89° C | 51% | 1009 hPa | 0 mm | - | - | - |
| 1777924820 | 8.33° C | 53% | 1009.1 hPa | 0 mm | - | - | - |
| 1777923924 | 8.33° C | 52% | 1009.1 hPa | 0 mm | - | - | - |
| 1777923017 | 8.33° C | 49% | 1008.9 hPa | 0 mm | - | - | - |
| 1777922122 | 8.89° C | 48% | 1008.9 hPa | 0 mm | - | - | - |
| 1777921215 | 8.33° C | 48% | 1008.7 hPa | 0 mm | - | - | - |
| 1777920318 | 8.33° C | 46% | 1008.6 hPa | 0 mm | - | - | - |
| 1777919408 | 9.44° C | 46% | 1008.6 hPa | 0 mm | - | - | - |
| 1777918513 | 8.33° C | 45% | 1008.3 hPa | 0 mm | - | - | - |
| 1777917602 | 7.78° C | 47% | 1008.5 hPa | 0 mm | - | - | - |
| 1777916761 | 8.33° C | 48% | 1008.2 hPa | 0 mm | - | - | - |
| 1777915859 | 8.33° C | 46% | 1008.3 hPa | 0 mm | - | - | - |
* Rain latest hour (hover to see other rain measurements)
** Current wind speed in m/s (hover to see current wind gust speed)